SWA9987 KPNS-KLAL

Flight info

Callsign SWA9987
Flight time 1h 1m
Altitude 37000
Route CEW MAI
Aircraft B738/M-SDE2E3FGHIRWXY/LB1

Departure

Time 2026-04-26 18:03
Airport Pensacola International Airport (KPNS)

Arrival

Time 2026-04-26 19:04
Airport Lakeland Linder International Airport (KLAL)
Time Latitude Longitude Altitude Speed Heading
2026-04-26 17:44 30.47597 -87.19273 108 ft 0 kts 214°
2026-04-26 17:54 30.47638 -87.19228 118 ft 0 kts 100°
2026-04-26 17:56 30.47623 -87.19147 116 ft 13 kts 111°
2026-04-26 17:57 30.47467 -87.19066 111 ft 14 kts 166°
2026-04-26 17:57 30.47399 -87.18995 108 ft 13 kts 114°
2026-04-26 17:57 30.47400 -87.18892 110 ft 13 kts 78°
2026-04-26 17:57 30.47424 -87.18761 112 ft 22 kts 78°
2026-04-26 17:58 30.47529 -87.18186 114 ft 23 kts 78°
2026-04-26 17:59 30.47592 -87.17839 119 ft 21 kts 78°
2026-04-26 17:59 30.47622 -87.17674 117 ft 21 kts 78°
2026-04-26 17:59 30.47648 -87.17534 122 ft 14 kts 78°
2026-04-26 17:59 30.47626 -87.17460 121 ft 6 kts 150°
2026-04-26 18:00 30.47622 -87.17457 123 ft 0 kts 158°
2026-04-26 18:02 30.47613 -87.17455 123 ft 7 kts 166°
2026-04-26 18:02 30.47528 -87.17464 120 ft 10 kts 232°
2026-04-26 18:02 30.47493 -87.17645 114 ft 54 kts 258°
2026-04-26 18:03 30.47362 -87.18352 114 ft 123 kts 258°
2026-04-26 18:03 30.47149 -87.19505 362 ft 155 kts 259°
2026-04-26 18:03 30.46924 -87.20703 1197 ft 158 kts 257°
2026-04-26 18:03 30.46598 -87.21969 1886 ft 168 kts 243°
2026-04-26 18:04 30.45824 -87.23109 2478 ft 195 kts 223°
2026-04-26 18:04 30.44513 -87.23823 2760 ft 228 kts 186°
2026-04-26 18:04 30.42947 -87.23345 3189 ft 245 kts 144°
2026-04-26 18:05 30.41630 -87.19721 4115 ft 272 kts 77°
2026-04-26 18:05 30.42223 -87.17646 5028 ft 272 kts 65°
2026-04-26 18:05 30.43021 -87.15647 5938 ft 275 kts 62°
2026-04-26 18:05 30.43863 -87.13640 6808 ft 279 kts 62°
2026-04-26 18:06 30.44695 -87.11632 7656 ft 282 kts 62°
2026-04-26 18:06 30.45537 -87.09556 8478 ft 286 kts 62°
2026-04-26 18:06 30.46374 -87.07448 9319 ft 290 kts 63°
2026-04-26 18:06 30.47210 -87.05305 10165 ft 294 kts 63°
2026-04-26 18:07 30.48070 -87.03076 10534 ft 315 kts 63°
2026-04-26 18:07 30.48994 -87.00667 10774 ft 337 kts 63°
2026-04-26 18:07 30.49952 -86.98142 11357 ft 347 kts 64°
2026-04-26 18:07 30.50596 -86.96434 11818 ft 350 kts 64°
2026-04-26 18:08 30.51909 -86.92935 12802 ft 357 kts 64°
2026-04-26 18:08 30.52906 -86.90271 13530 ft 363 kts 64°
2026-04-26 18:08 30.53919 -86.87560 14224 ft 369 kts 64°
2026-04-26 18:08 30.54944 -86.84814 14988 ft 372 kts 64°
2026-04-26 18:09 30.55963 -86.82083 15732 ft 377 kts 64°
2026-04-26 18:09 30.57010 -86.79272 16485 ft 381 kts 64°
2026-04-26 18:09 30.58068 -86.76432 17192 ft 386 kts 64°
2026-04-26 18:09 30.59141 -86.73551 17917 ft 391 kts 64°
2026-04-26 18:10 30.60225 -86.70637 18585 ft 396 kts 64°
2026-04-26 18:10 30.61321 -86.67688 19252 ft 399 kts 64°
2026-04-26 18:10 30.62420 -86.64726 19959 ft 401 kts 64°
2026-04-26 18:10 30.63526 -86.61744 20638 ft 403 kts 64°
2026-04-26 18:11 30.64640 -86.58739 21269 ft 407 kts 65°
2026-04-26 18:11 30.65735 -86.55781 21887 ft 410 kts 65°
2026-04-26 18:11 30.66864 -86.52731 22511 ft 413 kts 65°
2026-04-26 18:11 30.68002 -86.49654 23118 ft 416 kts 65°
2026-04-26 18:12 30.69148 -86.46551 23679 ft 420 kts 65°
2026-04-26 18:12 30.70304 -86.43420 24133 ft 424 kts 65°
2026-04-26 18:12 30.71471 -86.40257 24577 ft 428 kts 64°
2026-04-26 18:12 30.72646 -86.37067 25052 ft 431 kts 64°
2026-04-26 18:13 30.73832 -86.33846 25511 ft 435 kts 64°
2026-04-26 18:13 30.75026 -86.30599 25959 ft 439 kts 64°
2026-04-26 18:13 30.76214 -86.27364 26392 ft 442 kts 64°
2026-04-26 18:13 30.77030 -86.25142 26684 ft 445 kts 64°
2026-04-26 18:14 30.78645 -86.20738 27246 ft 449 kts 64°
2026-04-26 18:14 30.79874 -86.17384 27668 ft 453 kts 64°
2026-04-26 18:14 30.81044 -86.13969 28040 ft 458 kts 71°
2026-04-26 18:14 30.81495 -86.10274 28403 ft 467 kts 88°
2026-04-26 18:15 30.81422 -86.06488 28843 ft 469 kts 90°
2026-04-26 18:15 30.81285 -86.02682 29214 ft 473 kts 91°
2026-04-26 18:15 30.81132 -85.98843 29562 ft 477 kts 91°
2026-04-26 18:15 30.80985 -85.94970 29931 ft 480 kts 90°
2026-04-26 18:16 30.80853 -85.91131 30249 ft 483 kts 90°
2026-04-26 18:16 30.80617 -85.83284 30858 ft 488 kts 90°
2026-04-26 18:16 30.80506 -85.79330 31146 ft 491 kts 90°
2026-04-26 18:17 30.80395 -85.75348 31432 ft 494 kts 90°
2026-04-26 18:17 30.80282 -85.71348 31716 ft 496 kts 90°
2026-04-26 18:17 30.80168 -85.67329 32055 ft 497 kts 90°
2026-04-26 18:17 30.80051 -85.63316 32452 ft 496 kts 89°
2026-04-26 18:18 30.79932 -85.59310 32852 ft 496 kts 89°
2026-04-26 18:18 30.79812 -85.55303 33204 ft 496 kts 89°
2026-04-26 18:18 30.79690 -85.51295 33538 ft 497 kts 89°
2026-04-26 18:18 30.79568 -85.47277 33886 ft 497 kts 89°
2026-04-26 18:19 30.79444 -85.43265 34210 ft 497 kts 89°
2026-04-26 18:19 30.79320 -85.39308 34510 ft 497 kts 89°
2026-04-26 18:19 30.79194 -85.35290 34800 ft 497 kts 89°
2026-04-26 18:19 30.79067 -85.31278 35106 ft 497 kts 89°
2026-04-26 18:20 30.78938 -85.27262 35412 ft 497 kts 89°
2026-04-26 18:20 30.78808 -85.23246 35706 ft 497 kts 89°
2026-04-26 18:20 30.78677 -85.19238 35980 ft 497 kts 88°
2026-04-26 18:20 30.78589 -85.16573 36172 ft 497 kts 88°
2026-04-26 18:21 30.78410 -85.11205 36560 ft 497 kts 88°
2026-04-26 18:21 30.78275 -85.07188 36846 ft 497 kts 88°
2026-04-26 18:21 30.78139 -85.03168 36970 ft 500 kts 88°
2026-04-26 18:21 30.78002 -84.99120 36961 ft 502 kts 88°
2026-04-26 18:22 30.77722 -84.91065 36950 ft 500 kts 88°
2026-04-26 18:22 30.77270 -84.87069 36930 ft 502 kts 104°
2026-04-26 18:22 30.75914 -84.83329 36966 ft 504 kts 120°
2026-04-26 18:23 30.73796 -84.80095 36956 ft 503 kts 137°
2026-04-26 18:23 30.71192 -84.77390 36974 ft 502 kts 141°
2026-04-26 18:23 30.65816 -84.72190 36954 ft 503 kts 142°
2026-04-26 18:24 30.60442 -84.66956 36950 ft 505 kts 141°
2026-04-26 18:24 30.55141 -84.61687 36949 ft 505 kts 141°
2026-04-26 18:25 30.49810 -84.56359 36954 ft 506 kts 141°
2026-04-26 18:25 30.44475 -84.51042 36945 ft 506 kts 141°
2026-04-26 18:26 30.39128 -84.45726 36949 ft 506 kts 141°
2026-04-26 18:26 30.33794 -84.40431 36954 ft 505 kts 141°
2026-04-26 18:27 30.28498 -84.35180 36953 ft 504 kts 141°
2026-04-26 18:27 30.23172 -84.29900 36939 ft 504 kts 141°
2026-04-26 18:28 30.17854 -84.24635 36943 ft 502 kts 141°
2026-04-26 18:28 30.12556 -84.19396 36941 ft 501 kts 141°
2026-04-26 18:29 30.07265 -84.14173 36942 ft 500 kts 141°
2026-04-26 18:29 30.01986 -84.08970 36940 ft 499 kts 141°
2026-04-26 18:30 29.96749 -84.03814 36942 ft 498 kts 141°
2026-04-26 18:30 29.91471 -83.98626 36946 ft 498 kts 141°
2026-04-26 18:31 29.86194 -83.93445 36947 ft 498 kts 141°
2026-04-26 18:31 29.80827 -83.88414 36939 ft 496 kts 150°
2026-04-26 18:32 29.74893 -83.84508 36607 ft 498 kts 155°
2026-04-26 18:32 29.71827 -83.82642 36072 ft 497 kts 155°
2026-04-26 18:32 29.68781 -83.80780 35450 ft 496 kts 155°
2026-04-26 18:33 29.65745 -83.78893 34794 ft 496 kts 154°
2026-04-26 18:33 29.62720 -83.76979 34131 ft 497 kts 154°
2026-04-26 18:33 29.59701 -83.75048 33375 ft 497 kts 154°
2026-04-26 18:33 29.56688 -83.73108 32684 ft 495 kts 153°
2026-04-26 18:34 29.53704 -83.71184 32203 ft 489 kts 153°
2026-04-26 18:34 29.50751 -83.69281 31679 ft 484 kts 153°
2026-04-26 18:34 29.47866 -83.67426 31187 ft 479 kts 153°
2026-04-26 18:34 29.44971 -83.65568 30689 ft 475 kts 153°
2026-04-26 18:35 29.42102 -83.63730 30211 ft 470 kts 153°
2026-04-26 18:35 29.39263 -83.61913 29663 ft 466 kts 153°
2026-04-26 18:35 29.36446 -83.60111 29123 ft 461 kts 153°
2026-04-26 18:35 29.33665 -83.58333 28625 ft 455 kts 153°
2026-04-26 18:36 29.30915 -83.56576 28118 ft 450 kts 153°
2026-04-26 18:36 29.28199 -83.54841 27631 ft 445 kts 153°
2026-04-26 18:36 29.25512 -83.53126 27128 ft 440 kts 153°
2026-04-26 18:36 29.22849 -83.51427 26649 ft 436 kts 153°
2026-04-26 18:37 29.20221 -83.49753 26323 ft 428 kts 153°
2026-04-26 18:37 29.17683 -83.48138 26075 ft 419 kts 153°
2026-04-26 18:37 29.15154 -83.46529 25718 ft 414 kts 153°
2026-04-26 18:37 29.12645 -83.44936 25268 ft 411 kts 153°
2026-04-26 18:38 29.10153 -83.43354 24811 ft 409 kts 153°
2026-04-26 18:38 29.07671 -83.41778 24337 ft 407 kts 153°
2026-04-26 18:38 29.05201 -83.40211 23851 ft 406 kts 153°
2026-04-26 18:38 29.02731 -83.38645 23331 ft 405 kts 153°
2026-04-26 18:39 29.00282 -83.37092 22864 ft 401 kts 153°
2026-04-26 18:39 28.97852 -83.35550 22368 ft 398 kts 153°
2026-04-26 18:39 28.95471 -83.34040 21897 ft 395 kts 153°
2026-04-26 18:39 28.93071 -83.32519 21424 ft 393 kts 153°
2026-04-26 18:40 28.90689 -83.31010 20957 ft 390 kts 153°
2026-04-26 18:40 28.88320 -83.29511 20495 ft 388 kts 153°
2026-04-26 18:40 28.85963 -83.28019 20030 ft 387 kts 153°
2026-04-26 18:40 28.83612 -83.26532 19551 ft 385 kts 153°
2026-04-26 18:41 28.81272 -83.25053 19092 ft 384 kts 153°
2026-04-26 18:41 28.78939 -83.23579 18642 ft 383 kts 153°
2026-04-26 18:41 28.76610 -83.22108 18155 ft 382 kts 153°
2026-04-26 18:41 28.74319 -83.20662 17635 ft 381 kts 153°
2026-04-26 18:42 28.72010 -83.19205 17170 ft 379 kts 153°
2026-04-26 18:42 28.69711 -83.17755 16704 ft 376 kts 153°
2026-04-26 18:42 28.67425 -83.16315 16241 ft 374 kts 153°
2026-04-26 18:42 28.65151 -83.14882 15783 ft 373 kts 153°
2026-04-26 18:43 28.62889 -83.13456 15328 ft 371 kts 152°
2026-04-26 18:43 28.60635 -83.12038 14856 ft 371 kts 152°
2026-04-26 18:43 28.58364 -83.10610 14399 ft 377 kts 152°
2026-04-26 18:43 28.55959 -83.09101 13919 ft 413 kts 152°
2026-04-26 18:44 28.53389 -83.07488 13326 ft 424 kts 152°
2026-04-26 18:44 28.50818 -83.05873 12780 ft 422 kts 152°
2026-04-26 18:44 28.48292 -83.04285 12259 ft 418 kts 152°
2026-04-26 18:44 28.45758 -83.02694 11749 ft 415 kts 152°
2026-04-26 18:45 28.43258 -83.01125 11524 ft 405 kts 152°
2026-04-26 18:45 28.40812 -82.99590 10999 ft 401 kts 152°
2026-04-26 18:45 28.38380 -82.98070 10418 ft 398 kts 152°
2026-04-26 18:45 28.35982 -82.96570 10203 ft 390 kts 152°
2026-04-26 18:46 28.33585 -82.95068 10100 ft 398 kts 151°
2026-04-26 18:46 28.31165 -82.93504 10041 ft 401 kts 150°
2026-04-26 18:46 28.28754 -82.91911 10019 ft 401 kts 150°
2026-04-26 18:46 28.26348 -82.90305 10016 ft 401 kts 150°
2026-04-26 18:47 28.23947 -82.88699 10014 ft 401 kts 150°
2026-04-26 18:47 28.21539 -82.87103 10019 ft 401 kts 150°
2026-04-26 18:47 28.19156 -82.85528 10023 ft 401 kts 150°
2026-04-26 18:47 28.16760 -82.83950 10016 ft 390 kts 150°
2026-04-26 18:48 28.14498 -82.82470 10004 ft 361 kts 150°
2026-04-26 18:48 28.12393 -82.81105 9943 ft 337 kts 151°
2026-04-26 18:48 28.10416 -82.79817 9817 ft 319 kts 148°
2026-04-26 18:48 28.08767 -82.78231 9634 ft 308 kts 129°
2026-04-26 18:49 28.07689 -82.76175 9411 ft 302 kts 109°
2026-04-26 18:49 28.07272 -82.73866 9064 ft 299 kts 89°
2026-04-26 18:49 28.07346 -82.71523 8732 ft 297 kts 84°
2026-04-26 18:49 28.07505 -82.69194 8433 ft 296 kts 83°
2026-04-26 18:50 28.07678 -82.66908 8132 ft 294 kts 83°
2026-04-26 18:50 28.07863 -82.64572 7818 ft 294 kts 83°
2026-04-26 18:50 28.08044 -82.62306 7504 ft 293 kts 83°
2026-04-26 18:50 28.08230 -82.60012 7245 ft 293 kts 83°
2026-04-26 18:51 28.08416 -82.57725 7066 ft 291 kts 83°
2026-04-26 18:51 28.08599 -82.55455 7034 ft 288 kts 83°
2026-04-26 18:51 28.08782 -82.53199 7009 ft 287 kts 83°
2026-04-26 18:51 28.08967 -82.50949 7021 ft 288 kts 83°
2026-04-26 18:52 28.09155 -82.48692 7018 ft 288 kts 84°
2026-04-26 18:52 28.09207 -82.47185 7029 ft 291 kts 88°
2026-04-26 18:52 28.09188 -82.44114 7002 ft 297 kts 90°
2026-04-26 18:52 28.09151 -82.41775 6999 ft 297 kts 89°
2026-04-26 18:53 28.09112 -82.39436 7001 ft 297 kts 89°
2026-04-26 18:53 28.09084 -82.37103 6898 ft 297 kts 89°
2026-04-26 18:53 28.09061 -82.34740 6677 ft 301 kts 89°
2026-04-26 18:53 28.09042 -82.32363 6413 ft 301 kts 89°
2026-04-26 18:54 28.09026 -82.30016 6159 ft 296 kts 89°
2026-04-26 18:54 28.09013 -82.27707 5908 ft 291 kts 89°
2026-04-26 18:54 28.09001 -82.25429 5674 ft 287 kts 89°
2026-04-26 18:54 28.08989 -82.23175 5420 ft 285 kts 89°
2026-04-26 18:55 28.08978 -82.20972 5177 ft 282 kts 90°
2026-04-26 18:55 28.08967 -82.18761 4940 ft 280 kts 90°
2026-04-26 18:55 28.08955 -82.16557 4719 ft 280 kts 90°
2026-04-26 18:55 28.08943 -82.14355 4483 ft 280 kts 90°
2026-04-26 18:56 28.08931 -82.12179 4288 ft 275 kts 90°
2026-04-26 18:56 28.08919 -82.10042 4080 ft 268 kts 90°
2026-04-26 18:56 28.08907 -82.07949 3658 ft 265 kts 90°
2026-04-26 18:56 28.08899 -82.06571 3413 ft 262 kts 90°
2026-04-26 18:57 28.08882 -82.03841 2924 ft 254 kts 90°
2026-04-26 18:57 28.08878 -82.03201 2908 ft 248 kts 89°
2026-04-26 18:57 28.08858 -82.00077 2721 ft 229 kts 90°
2026-04-26 18:57 28.08847 -81.98328 2681 ft 214 kts 89°
2026-04-26 18:58 28.08836 -81.96687 2690 ft 206 kts 90°
2026-04-26 18:58 28.08826 -81.95076 2699 ft 204 kts 90°
2026-04-26 18:58 28.08815 -81.93464 2706 ft 206 kts 90°
2026-04-26 18:58 28.08807 -81.92386 2723 ft 207 kts 90°
2026-04-26 18:59 28.08795 -81.90749 2684 ft 206 kts 90°
2026-04-26 18:59 28.08770 -81.88641 2710 ft 201 kts 94°
2026-04-26 18:59 28.08342 -81.87143 2695 ft 201 kts 124°
2026-04-26 18:59 28.07349 -81.86095 2694 ft 192 kts 155°
2026-04-26 19:00 28.06082 -81.85694 2710 ft 191 kts 174°
2026-04-26 19:00 28.05207 -81.85534 2704 ft 195 kts 176°
2026-04-26 19:00 28.03882 -81.85692 2695 ft 190 kts 206°
2026-04-26 19:00 28.02832 -81.86508 2675 ft 181 kts 226°
2026-04-26 19:01 28.01954 -81.87529 2558 ft 183 kts 230°
2026-04-26 19:01 28.01100 -81.88619 2422 ft 183 kts 232°
2026-04-26 19:01 28.00305 -81.89665 2241 ft 169 kts 232°
2026-04-26 19:01 27.99644 -81.90727 1979 ft 161 kts 244°
2026-04-26 19:02 27.99228 -81.91826 1819 ft 146 kts 253°
2026-04-26 19:02 27.98998 -81.92889 1663 ft 128 kts 263°
2026-04-26 19:02 27.98931 -81.93897 1402 ft 129 kts 271°
2026-04-26 19:02 27.98946 -81.94567 1275 ft 128 kts 272°
2026-04-26 19:03 27.98951 -81.95911 1101 ft 129 kts 269°
2026-04-26 19:03 27.98939 -81.96916 943 ft 126 kts 268°
2026-04-26 19:03 27.98924 -81.97882 677 ft 119 kts 269°
2026-04-26 19:03 27.98936 -81.98852 549 ft 124 kts 268°
2026-04-26 19:04 27.98925 -81.99835 383 ft 124 kts 269°
2026-04-26 19:04 27.98929 -82.00763 173 ft 113 kts 269°
2026-04-26 19:04 27.98928 -82.01525 147 ft 68 kts 270°
2026-04-26 19:04 27.98932 -82.01821 148 ft 16 kts 290°
2026-04-26 19:05 27.99030 -82.01704 145 ft 13 kts 72°
2026-04-26 19:05 27.99035 -82.01680 145 ft 0 kts 80°
2026-04-26 19:06 27.99036 -82.01679 145 ft 2 kts 80°
2026-04-26 19:07 27.99039 -82.01587 145 ft 16 kts 89°
2026-04-26 19:07 27.99119 -82.01533 146 ft 15 kts 359°
2026-04-26 19:07 27.99212 -82.01575 146 ft 14 kts 341°
2026-04-26 19:07 27.99272 -82.01653 145 ft 12 kts 294°
2026-04-26 19:08 27.99306 -82.01657 144 ft 4 kts 45°
2026-04-26 19:08 27.99308 -82.01635 145 ft 2 kts 103°
2026-04-26 19:08 27.99290 -82.01610 145 ft 0 kts 134°